Meteo orario Zagrivochnaya

Oggi, 29 Luglio, Giovedi

Tempo Temperatura Precipitazioni Vento Pressione Umidità
00:00 +8°C° 0 mm 1 m/s 750 mm Hg 97%
01:00 +8°C° 0 mm 1 m/s 750 mm Hg 98%
02:00 +8°C° 0 mm 1 m/s 750 mm Hg 98%
03:00 +8°C° 0 mm 1 m/s 750 mm Hg 98%
04:00 +8°C° 0 mm 1 m/s 750 mm Hg 98%
05:00 +8°C° 0 mm 1 m/s 750 mm Hg 97%
06:00 +7°C° 0 mm 0 m/s 750 mm Hg 96%
07:00 +8°C° 0 mm 0 m/s 750 mm Hg 94%
08:00 +8°C° 0 mm 0 m/s 750 mm Hg 92%
09:00 +9°C° 0 mm 0 m/s 750 mm Hg 89%
10:00 +9°C° 0.1 mm 0 m/s 750 mm Hg 85%
11:00 +10°C° 0.1 mm 0 m/s 750 mm Hg 81%
12:00 +11°C° 0.1 mm 0 m/s 750 mm Hg 77%
13:00 +11°C° 0.1 mm 0 m/s 750 mm Hg 73%
14:00 +12°C° 0.1 mm 0 m/s 750 mm Hg 69%
15:00 +12°C° 0.1 mm 0 m/s 750 mm Hg 65%
16:00 +12°C° 0 mm 0 m/s 749 mm Hg 66%
17:00 +13°C° 0 mm 1 m/s 749 mm Hg 67%
18:00 +13°C° 0 mm 1 m/s 749 mm Hg 68%
19:00 +12°C° 0 mm 1 m/s 749 mm Hg 74%
20:00 +11°C° 0 mm 1 m/s 749 mm Hg 79%
21:00 +10°C° 0 mm 1 m/s 749 mm Hg 85%
22:00 +10°C° 0 mm 1 m/s 748 mm Hg 87%
23:00 +9°C° 0 mm 1 m/s 748 mm Hg 89%

Domani, 30 Luglio, Venerdi

Tempo Temperatura Precipitazioni Vento Pressione Umidità
00:00 +9°C° 0 mm 1 m/s 748 mm Hg 90%
01:00 +8°C° 0 mm 1 m/s 748 mm Hg 91%
02:00 +8°C° 0 mm 1 m/s 748 mm Hg 91%
03:00 +8°C° 0 mm 1 m/s 748 mm Hg 91%
04:00 +9°C° 0 mm 1 m/s 748 mm Hg 86%
05:00 +10°C° 0 mm 1 m/s 748 mm Hg 82%
06:00 +11°C° 0 mm 1 m/s 748 mm Hg 77%
07:00 +12°C° 0 mm 1 m/s 747 mm Hg 69%
08:00 +14°C° 0 mm 1 m/s 747 mm Hg 61%
09:00 +15°C° 0 mm 1 m/s 747 mm Hg 53%
10:00 +16°C° 0 mm 1 m/s 747 mm Hg 50%
11:00 +18°C° 0 mm 1 m/s 747 mm Hg 46%
12:00 +18°C° 0 mm 1 m/s 747 mm Hg 43%
13:00 +18°C° 0 mm 1 m/s 747 mm Hg 43%
14:00 +18°C° 0 mm 1 m/s 747 mm Hg 43%
15:00 +18°C° 0 mm 1 m/s 747 mm Hg 44%
16:00 +18°C° 0 mm 1 m/s 747 mm Hg 45%
17:00 +18°C° 0 mm 1 m/s 747 mm Hg 47%
18:00 +18°C° 0 mm 1 m/s 747 mm Hg 49%
19:00 +15°C° 0 mm 1 m/s 747 mm Hg 54%
20:00 +14°C° 0 mm 1 m/s 747 mm Hg 60%
21:00 +12°C° 0 mm 1 m/s 747 mm Hg 66%
22:00 +12°C° 0 mm 1 m/s 747 mm Hg 66%
23:00 +12°C° 0 mm 1 m/s 747 mm Hg 66%

Dopodomani, 31 Luglio, Sabato

Tempo Temperatura Precipitazioni Vento Pressione Umidità
00:00 +12°C° 0 mm 1 m/s 747 mm Hg 66%
01:00 +10°C° 0 mm 2 m/s 747 mm Hg 69%
02:00 +10°C° 0 mm 2 m/s 747 mm Hg 73%
03:00 +9°C° 0 mm 2 m/s 747 mm Hg 76%
04:00 +10°C° 0 mm 2 m/s 747 mm Hg 73%
05:00 +12°C° 0 mm 2 m/s 747 mm Hg 70%
06:00 +13°C° 0 mm 2 m/s 746 mm Hg 67%
07:00 +12°C° 0.4 mm 2 m/s 746 mm Hg 74%
08:00 +12°C° 0.4 mm 2 m/s 746 mm Hg 82%
09:00 +11°C° 0.4 mm 3 m/s 745 mm Hg 90%
10:00 +11°C° 0.8 mm 3 m/s 745 mm Hg 92%
11:00 +11°C° 0.8 mm 3 m/s 745 mm Hg 94%
12:00 +12°C° 0.8 mm 4 m/s 744 mm Hg 96%
13:00 +13°C° 0 mm 3 m/s 744 mm Hg 94%
14:00 +13°C° 0 mm 3 m/s 744 mm Hg 93%
15:00 +14°C° 0 mm 3 m/s 744 mm Hg 92%
16:00 +15°C° 0 mm 2 m/s 743 mm Hg 92%
17:00 +15°C° 0 mm 2 m/s 743 mm Hg 93%
18:00 +15°C° 0 mm 2 m/s 743 mm Hg 94%
19:00 +15°C° 0.4 mm 2 m/s 743 mm Hg 95%
20:00 +15°C° 0.4 mm 2 m/s 742 mm Hg 97%
21:00 +14°C° 0.4 mm 2 m/s 742 mm Hg 98%
22:00 +14°C° 0.1 mm 2 m/s 742 mm Hg 98%
23:00 +14°C° 0.1 mm 2 m/s 742 mm Hg 98%

1 Agosto, Domenica

Tempo Temperatura Precipitazioni Vento Pressione Umidità
00:00 +13°C° 0.1 mm 2 m/s 742 mm Hg 97%
01:00 +13°C° 0 mm 2 m/s 742 mm Hg 97%
02:00 +13°C° 0 mm 2 m/s 742 mm Hg 97%
03:00 +12°C° 0 mm 2 m/s 742 mm Hg 97%
04:00 +13°C° 0 mm 2 m/s 742 mm Hg 95%
05:00 +14°C° 0 mm 2 m/s 743 mm Hg 93%
06:00 +15°C° 0 mm 2 m/s 743 mm Hg 91%
07:00 +17°C° 0 mm 2 m/s 743 mm Hg 82%
08:00 +18°C° 0 mm 2 m/s 743 mm Hg 72%
09:00 +20°C° 0 mm 2 m/s 743 mm Hg 63%
10:00 +20°C° 0.5 mm 3 m/s 743 mm Hg 64%
11:00 +21°C° 0.5 mm 3 m/s 744 mm Hg 66%
12:00 +21°C° 0.5 mm 4 m/s 744 mm Hg 67%
13:00 +21°C° 0.3 mm 4 m/s 744 mm Hg 65%
14:00 +21°C° 0.3 mm 4 m/s 745 mm Hg 63%
15:00 +20°C° 0.3 mm 5 m/s 745 mm Hg 61%
16:00 +20°C° 0 mm 4 m/s 745 mm Hg 62%
17:00 +19°C° 0 mm 4 m/s 746 mm Hg 64%
18:00 +18°C° 0 mm 3 m/s 747 mm Hg 66%
19:00 +17°C° 0 mm 2 m/s 747 mm Hg 75%
20:00 +15°C° 0 mm 2 m/s 747 mm Hg 84%
21:00 +13°C° 0 mm 1 m/s 747 mm Hg 93%
22:00 +13°C° 0 mm 1 m/s 748 mm Hg 94%
23:00 +12°C° 0 mm 1 m/s 748 mm Hg 95%

2 Agosto, Lunedi

Tempo Temperatura Precipitazioni Vento Pressione Umidità
00:00 +12°C° 0 mm 1 m/s 748 mm Hg 95%
01:00 +12°C° 0 mm 1 m/s 748 mm Hg 96%
02:00 +12°C° 0 mm 1 m/s 748 mm Hg 96%
03:00 +11°C° 0 mm 1 m/s 748 mm Hg 96%
04:00 +13°C° 0 mm 1 m/s 748 mm Hg 90%
05:00 +15°C° 0 mm 1 m/s 748 mm Hg 85%
06:00 +16°C° 0 mm 1 m/s 747 mm Hg 79%
07:00 +18°C° 0.1 mm 2 m/s 747 mm Hg 73%
08:00 +19°C° 0.1 mm 2 m/s 747 mm Hg 67%
09:00 +21°C° 0.1 mm 2 m/s 747 mm Hg 61%
10:00 +21°C° 0.3 mm 2 m/s 747 mm Hg 64%
11:00 +21°C° 0.3 mm 2 m/s 747 mm Hg 67%
12:00 +21°C° 0.3 mm 3 m/s 747 mm Hg 70%
13:00 +20°C° 0.1 mm 2 m/s 747 mm Hg 72%
14:00 +19°C° 0.1 mm 2 m/s 747 mm Hg 75%
15:00 +18°C° 0.1 mm 2 m/s 747 mm Hg 78%
16:00 +18°C° 0.3 mm 2 m/s 747 mm Hg 81%
17:00 +18°C° 0.3 mm 2 m/s 747 mm Hg 84%
18:00 +18°C° 0.3 mm 2 m/s 747 mm Hg 87%
19:00 +17°C° 0.2 mm 2 m/s 747 mm Hg 90%
20:00 +16°C° 0.2 mm 2 m/s 748 mm Hg 94%
21:00 +16°C° 0.2 mm 2 m/s 748 mm Hg 97%
22:00 +15°C° 0 mm 2 m/s 748 mm Hg 98%
23:00 +15°C° 0 mm 2 m/s 748 mm Hg 98%

3 Agosto, Martedi

Tempo Temperatura Precipitazioni Vento Pressione Umidità
00:00 +14°C° 0 mm 2 m/s 748 mm Hg 98%
01:00 +14°C° 0 mm 2 m/s 749 mm Hg 98%
02:00 +14°C° 0 mm 2 m/s 749 mm Hg 98%
03:00 +13°C° 0 mm 1 m/s 749 mm Hg 98%
04:00 +14°C° 0 mm 2 m/s 750 mm Hg 96%
05:00 +15°C° 0 mm 2 m/s 750 mm Hg 94%
06:00 +16°C° 0 mm 2 m/s 750 mm Hg 91%
07:00 +18°C° 0 mm 2 m/s 750 mm Hg 82%
08:00 +20°C° 0 mm 2 m/s 750 mm Hg 73%
09:00 +21°C° 0 mm 2 m/s 750 mm Hg 63%
10:00 +24°C° 0 mm 2 m/s 750 mm Hg 58%
11:00 +25°C° 0 mm 1 m/s 750 mm Hg 52%
12:00 +26°C° 0 mm 1 m/s 750 mm Hg 47%
13:00 +26°C° 0 mm 2 m/s 750 mm Hg 44%
14:00 +27°C° 0 mm 2 m/s 750 mm Hg 42%
15:00 +27°C° 0 mm 2 m/s 749 mm Hg 39%
16:00 +27°C° 0 mm 2 m/s 749 mm Hg 44%
17:00 +26°C° 0 mm 2 m/s 749 mm Hg 48%
18:00 +26°C° 0 mm 2 m/s 749 mm Hg 52%
19:00 +24°C° 0 mm 2 m/s 748 mm Hg 58%
20:00 +21°C° 0 mm 2 m/s 748 mm Hg 65%
21:00 +20°C° 0 mm 3 m/s 748 mm Hg 71%
22:00 +20°C° 0 mm 3 m/s 747 mm Hg 72%
23:00 +20°C° 0 mm 3 m/s 747 mm Hg 72%
Mostrare altro

Abbiamo bisogno del tuo consenso

Meteoprog e i nostri fornitori di servizi possono memorizzare e accedere a dati personali come cookie, identificatori di dispositivi o altre tecnologie simili sul tuo dispositivo e possono elaborare tali dati per personalizzare i contenuti e gli annunci, nonché fornire funzionalità dei social media e analizzarne il traffico.

  • Archiviare e/o accedere alle informazioni sul tuo dispositivo

    Cookie, identificatori di dispositivi o altre informazioni possono essere memorizzati o resi accessibili sul tuo dispositivo per le finalità sopra indicate.

  • Annunci e contenuti personalizzati, misurazione di annunci e contenuti, approfondimenti sul pubblico e sviluppo di prodotti

    Gli annunci e i contenuti possono essere personalizzati in base a un profilo. È possibile aggiungere più dati per personalizzare meglio annunci e contenuti. È possibile misurare il rendimento degli annunci e dei contenuti. È possibile ricavare informazioni sul pubblico che ha visto gli annunci e i contenuti. Tali dati possono essere utilizzati per sviluppare o migliorare l'esperienza, i sistemi e il software dell'utente.

Cliccando su “Accetto”, acconsenti all'uso di cookie, identificatori di dispositivo, web beacon o altre tecnologie simili. Puoi modificare le impostazioni nel browser del tuo dispositivo.

Per determinati scopi, è possibile fare affidamento su interessi legali, piuttosto che sul consenso. Puoi approfondire questo argomento consultando la nostra Informativa sulla privacy e sui cookie.